Weather History for Oxford, CT

Change the Weather History Date:

Thursday, January 10, 2013

  Actual Average Record
Temperature  
Mean Temperature 36 °F -  
Max Temperature 42 °F 31 °F 53 °F (2000)
Min Temperature 30 °F 18 °F -5 °F (2004)
Degree Days  
Heating Degree Days 29    
Moisture  
Dew Point 21 °F    
Average Humidity 53    
Maximum Humidity 65    
Minimum Humidity 42    
Precipitation  
Precipitation 0.00 in - - ()
Sea Level Pressure  
Sea Level Pressure 30.38 in    
Wind  
Wind Speed 9 mph (NW)    
Max Wind Speed 17 mph    
Max Gust Speed 30 mph    
Visibility 10 miles    
Events      
Averages and records for this station are not official NWS values.
T = Trace of Precipitation, MM = Missing Value Source: NWS Daily Summary

Daily Weather History Graph

Daily Weather History Graph

Search for Another Location

Airport:

Trip Planner

Search our weather history database for the weather conditions in past years. The results will help you decide how hot, cold, wet, or windy it might be!

Date:

Astronomy

Jan. 10, 2013 Rise Set
Actual Time 7:18 AM EST 4:42 PM EST
Civil Twilight 6:47 AM EST 5:13 PM EST
Nautical Twilight 6:13 AM EST 5:47 PM EST
Astronomical Twilight 5:39 AM EST 6:21 PM EST
Moon 5:55 AM EST (1/10) 3:47 PM EST (1/10)
Length of Visible Light 10h 25m
Length of Day
9h 24m
Waning Crescent, 2% of the Moon is Illuminated
Jan 10
Waning Crescent
Jan 11
New
Jan 18
First Quarter
Jan 26
Full
Feb 3
Last Quarter

Hourly Weather History & Observations

Time (EST) Temp. Windchill Dew Point Humidity Pressure Visibility Wind Dir Wind Speed Gust Speed Precip Events Conditions
12:15 AM 41.0 °F 35.8 °F 30.2 °F 65% 30.16 in 10.0 mi West 8.1 mph - N/A   Clear
12:35 AM 41.0 °F 37.1 °F 30.2 °F 65% 30.17 in 10.0 mi West 5.8 mph - N/A   Clear
1:15 AM 39.2 °F 33.0 °F 28.4 °F 65% 30.17 in 10.0 mi WNW 9.2 mph - N/A   Clear
1:35 AM 39.2 °F 33.0 °F 28.4 °F 65% 30.19 in 10.0 mi WNW 9.2 mph - N/A   Clear
1:55 AM 39.2 °F 35.0 °F 26.6 °F 61% 30.21 in 10.0 mi WNW 5.8 mph - N/A   Clear
2:15 AM 39.2 °F 34.2 °F 26.6 °F 61% 30.23 in 10.0 mi WNW 6.9 mph - N/A   Clear
2:55 AM 39.2 °F 32.0 °F 21.2 °F 49% 30.25 in 10.0 mi NNW 11.5 mph 19.6 mph N/A   Clear
3:15 AM 39.2 °F 33.0 °F 21.2 °F 49% 30.26 in 10.0 mi WNW 9.2 mph 17.3 mph N/A   Clear
3:55 AM 39.2 °F 34.2 °F 21.2 °F 49% 30.27 in 10.0 mi West 6.9 mph - N/A   Clear
4:15 AM 37.4 °F 33.8 °F 21.2 °F 52% 30.28 in 10.0 mi WNW 4.6 mph - N/A   Clear
4:35 AM 37.4 °F 33.8 °F 19.4 °F 48% 30.29 in 10.0 mi NNW 4.6 mph - N/A   Partly Cloudy
4:55 AM 37.4 °F 31.4 °F 19.4 °F 48% 30.29 in 10.0 mi NW 8.1 mph - N/A   Partly Cloudy
5:15 AM 37.4 °F 29.8 °F 21.2 °F 52% 30.29 in 10.0 mi NW 11.5 mph 19.6 mph N/A   Clear
5:35 AM 37.4 °F 30.3 °F 19.4 °F 48% 30.30 in 10.0 mi NNW 10.4 mph 26.5 mph N/A   Clear
5:55 AM 37.4 °F 27.8 °F 19.4 °F 48% 30.32 in 10.0 mi NNW 17.3 mph 26.5 mph N/A   Clear
6:45 AM 37.4 °F 29.8 °F 19.4 °F 48% 30.37 in 10.0 mi NNW 11.5 mph 18.4 mph N/A   Clear
7:45 AM 35.6 °F 27.5 °F 19.4 °F 52% 30.41 in 10.0 mi North 11.5 mph 16.1 mph N/A   Partly Cloudy
8:45 AM 37.4 °F 29.8 °F 19.4 °F 48% 30.44 in 10.0 mi NNW 11.5 mph 16.1 mph N/A   Partly Cloudy
9:45 AM 39.2 °F 32.5 °F 19.4 °F 45% 30.46 in 10.0 mi NNW 10.4 mph 21.9 mph N/A   Partly Cloudy
10:45 AM 39.2 °F 34.2 °F 19.4 °F 45% 30.46 in 10.0 mi NNW 6.9 mph 27.6 mph N/A   Clear
11:55 AM 41.0 °F 33.1 °F 19.4 °F 42% 30.43 in 10.0 mi NNW 15.0 mph 15.0 mph N/A   Clear
12:50 PM 41.0 °F 32.5 °F 19.4 °F 42% 30.41 in 10.0 mi North 17.3 mph 29.9 mph N/A   Clear
1:55 PM 42.8 °F 35.8 °F 21.2 °F 42% 30.43 in 10.0 mi North 13.8 mph 24.2 mph N/A   Clear
2:50 PM 42.8 °F 36.6 °F 21.2 °F 42% 30.44 in 10.0 mi North 11.5 mph 23.0 mph N/A   Clear
3:45 PM 41.0 °F 33.1 °F 21.2 °F 45% 30.47 in 10.0 mi North 15.0 mph 19.6 mph N/A   Clear
4:45 PM 39.2 °F 35.0 °F 21.2 °F 49% 30.48 in 10.0 mi NNW 5.8 mph 17.3 mph N/A   Clear
5:45 PM 37.4 °F 32.1 °F 19.4 °F 48% 30.50 in 10.0 mi North 6.9 mph 17.3 mph N/A   Clear
6:45 PM 37.4 °F 31.4 °F 21.2 °F 52% 30.51 in 10.0 mi NNW 8.1 mph - N/A   Clear
7:45 PM 35.6 °F 30.7 °F 21.2 °F 56% 30.53 in 10.0 mi WNW 5.8 mph - N/A   Clear
9:15 PM 32.0 °F 26.4 °F 19.4 °F 60% 30.53 in 10.0 mi NNW 5.8 mph - N/A   Clear
9:35 PM 30.2 °F - 19.4 °F 64% 30.54 in 10.0 mi Calm Calm - N/A   Clear
9:55 PM 30.2 °F 25.4 °F 17.6 °F 60% 30.54 in 10.0 mi NE 4.6 mph - N/A   Clear
10:35 PM 30.2 °F 24.3 °F 19.4 °F 64% 30.53 in 10.0 mi North 5.8 mph - N/A   Clear
10:55 PM 30.2 °F 22.6 °F 19.4 °F 64% 30.51 in 10.0 mi NNE 8.1 mph - N/A   Clear
11:15 PM 30.2 °F 23.4 °F 19.4 °F 64% 30.52 in 10.0 mi North 6.9 mph - N/A   Clear
11:35 PM 30.2 °F 26.7 °F 19.4 °F 64% 30.52 in 10.0 mi WNW 3.5 mph - N/A   Clear